Flag for Austria Weather past 2 weeks in Waidhofen an der Ybbs, Lower Austria, Austria

Now
57 °F

Cool.


Feels Like: 57 °F
Forecast: 42 / 53 °F
Wind: 2 mph from East

Location: Amstetten

Current Time: Apr 27, 2015 at 9:58:58 AM

Latest Report: Apr 27, 2015 at 9:00 AM


Visibility: N/A

Pressure: 29.61 "Hg

Humidity: 76%

Dew point: 50 °F

Location of Waidhofen an der YbbsLocation

Historic Weather in Waidhofen an der Ybbs — Graph

°F

Waidhofen an der Ybbs temperature yesterday

Maximum temperature yesterday: 70 °F (at 5:00 PM)
Minimum temperature yesterday: 56 °F (at 7:00 AM)
Average temperature yesterday: 62 °F

Past Weeks' High & Low Weather Summary

 TemperatureHumidityPressure
High76 °F (Apr 25, 4:00 PM)100% (Apr 24, 7:00 AM)30.46 "Hg (Apr 24, 7:00 AM)
Low34 °F (Apr 19, 6:00 AM)24% (Apr 25, 5:00 PM)29.63 "Hg (Apr 27, 8:00 AM)
Average54 °F64%30.10 "Hg
* Reported Apr 12 8:00 AM — Apr 27 8:00 AM, Waidhofen an der Ybbs, Weather by CustomWeather, © 2015

Note: Actual official high and low records may vary slightly from our data, if they occured in-between our weather recording intervals... More about our weather records

Advertising

Waidhofen an der Ybbs weather history for previous 24 hours

 ConditionsComfort  
Time TempWeatherWind HumidityBarometerVisibility
8:00 AM
Mon, Apr 27
53 °FPartly sunny.3 mph83%29.63 "HgN/A
7:00 AM50 °FCool.2 mph88%29.64 "HgN/A
6:00 AM49 °FCool.2 mph89%29.65 "HgN/A
5:00 AM50 °FCool.2 mph88%29.65 "HgN/A
4:00 AM51 °FCool.2 mph88%29.67 "HgN/A
3:00 AM53 °FCool.3 mph81%29.68 "HgN/A
2:00 AM52 °FCool.2 mph85%29.71 "HgN/A
1:00 AM55 °FCool.2 mph79%29.71 "HgN/A
12:00 AM56 °FCool.2 mph75%29.72 "HgN/A
11:00 PM
Sun, Apr 26
58 °FCool.2 mph72%29.73 "HgN/A
10:00 PM57 °FCool.1 mph78%29.73 "HgN/A
9:00 PM61 °FCool.1 mph66%29.73 "HgN/A
8:00 PM64 °FMild.1 mph62%29.73 "HgN/A
7:00 PM68 °FMild.1 mph52%29.73 "HgN/A
6:00 PM70 °FMild.2 mph43%29.73 "HgN/A
5:00 PM70 °FMild.1 mph46%29.75 "HgN/A
4:00 PM70 °FMild.2 mph47%29.77 "HgN/A
3:00 PM69 °FMild.1 mph50%29.79 "HgN/A
2:00 PM67 °FMild.2 mph55%29.82 "HgN/A
1:00 PM66 °FMild.2 mph55%29.84 "HgN/A
12:00 PM65 °FMild.2 mph58%29.86 "HgN/A
11:00 AM62 °FCool.3 mph64%29.88 "HgN/A
10:00 AM61 °FCool.3 mph69%29.88 "HgN/A
9:00 AM59 °FCool.3 mph74%29.89 "HgN/A
Weather by CustomWeather, © 2015

See weather overviewHow to use our weather pages